This is the latest recevied weather packets stored in our database for station/object KN6WGU. If no packets are shown the sender has not sent any weather packets the latest 10 day(s).
| Time | Temp. | Humidity | Pressure | Rain* | Wind** | Luminosity | Snow |
|---|---|---|---|---|---|---|---|
| 1787456687 | 20° C | 87% | 1004.4 hPa | 0 mm | - | 0 W/m² | - |
| 1787456383 | 20.56° C | 84% | 1004.6 hPa | 0 mm | - | 0 W/m² | - |
| 1787456078 | 20.56° C | 81% | 1004.4 hPa | 0 mm | - | 0 W/m² | - |
| 1787455773 | 20.56° C | 78% | 1004.4 hPa | 0 mm | - | 0 W/m² | - |
| 1787455468 | 20.56° C | 79% | 1004.3 hPa | 0 mm | - | 0 W/m² | - |
| 1787455163 | 21.11° C | 76% | 1004.3 hPa | 0 mm | - | 0 W/m² | - |
| 1787454859 | 21.67° C | 76% | 1004.3 hPa | 0 mm | - | 0 W/m² | - |
| 1787454550 | 21.67° C | 73% | 1004.3 hPa | 0 mm | - | 0 W/m² | - |
| 1787454245 | 21.67° C | 71% | 1004 hPa | 0 mm | - | 0 W/m² | - |
| 1787453945 | 21.67° C | 74% | 1004 hPa | 0 mm | - | 0 W/m² | - |
| 1787453641 | 21.67° C | 74% | 1003.9 hPa | 0 mm | - | 0 W/m² | - |
| 1787453336 | 21.67° C | 74% | 1004 hPa | 0 mm | - | 0 W/m² | - |
| 1787453035 | 21.67° C | 74% | 1003.9 hPa | 0 mm | - | 0 W/m² | - |
| 1787452729 | 21.67° C | 74% | 1004 hPa | 0 mm | - | 0 W/m² | - |
| 1787452429 | 21.67° C | 76% | 1003.9 hPa | 0 mm | - | 0 W/m² | - |
| 1787452125 | 21.67° C | 78% | 1003.9 hPa | 0 mm | - | 0 W/m² | - |
| 1787451819 | 21.67° C | 81% | 1004 hPa | 0 mm | - | 0 W/m² | - |
| 1787451514 | 21.67° C | 81% | 1003.7 hPa | 0 mm | - | 0 W/m² | - |
| 1787451209 | 21.67° C | 83% | 1003.7 hPa | 0 mm | - | 0 W/m² | - |
| 1787450904 | 21.67° C | 84% | 1003.9 hPa | 0 mm | - | 0 W/m² | - |
| 1787450599 | 21.67° C | 84% | 1003.7 hPa | 0 mm | - | 0 W/m² | - |
| 1787450295 | 21.67° C | 85% | 1003.6 hPa | 0 mm | - | 0 W/m² | - |
| 1787449991 | 21.67° C | 85% | 1003.6 hPa | 0 mm | - | 0 W/m² | - |
| 1787449686 | 21.67° C | 85% | 1003.7 hPa | 0 mm | - | 0 W/m² | - |
| 1787449381 | 21.67° C | 85% | 1003.7 hPa | 0 mm | - | 0 W/m² | - |
* Rain latest hour (hover to see other rain measurements)
** Current wind speed in m/s (hover to see current wind gust speed)